SCP
0 0 0 0 0 0 0 -0 -0 0 0 0 0 0 0 0 0 0 0 0 0 0 0 0 0 0 0 0 0 0 0 0 0 0 0 0 0 0 0 0 0 0 0
0 0 0 0 0 0 0 -0 -0 0 0 0 0 0 0 0 0 0 0 0 0 0 0 0 0 0 0 0 0 0 0 0 0 0 0 0 0 0 0 0 0 0 0
0 0 0 0 0 0 0 0 0 0 0 0 0 0 0 0 0 0 0 0 0 0 0 0 0 0 0 0 0 0 0 0 0 0 0 0 0 0 0 0 0 0 0
0 0 0 0 0 0 0 0 0 0 0 0 0 0 0 0 0 0 0 0 0 0 0 0 0 0 0 0 0 0 0 0 0 0 0 0 0 0 0 0 0 0 0
0 0 0 0 0 0 0 0 0 0 -0 -0 0 0 0 0 0 0 0 0 0 0 0 0 0 0 0 0 0 0 0 0 0 0 0 0 0 0 0 0 0 0 0
0 0 0 0 0 0 0 0 0 0 0 0 0 0 0 0 0 0 0 0 0 0 0 0 0 0 0 0 0 0 0 0 0 0 0 0 0 0 0 0 0 0 0
0 0 0 0 0 0 0 0 0 0 0 0 0 0 0 0 0 0 0 0 0 0 0 0 0 0 0 0 0 0 0 0 0 0 0 0 0 0 0 0 0 0 0
0 0 0 0 0 0 0 0 0 0 0 0 0 0 0 0 0 0 0 0 0 0 0 0 0 0 0 0 0 0 0 0 0 0 0 0 0 0 0 0 0 0 0
0 0 0 0 0 0 0 0 0 0 0 0 0 0 0 0 0 0 0 0 0 0 0 0 0 0 0 0 0 0 0 0 0 0 0 0 0 0 0 0 0 0 0
0 0 0 0 0 0 0 0 0 0 0 0 0 0 0 0 0 0 0 0 0 0 0 0 0 0 0 0 0 0 0 0 0 0 0 0 0 0 0 0 0 0 0
0 0 0 0 0 0 0 0 0 0 0 0 0 0 0 0 0 0 0 0 0 0 0 0 0 0 0 0 0 0 0 0 0 0 0 0 0 0 0 0 0 0 0
0 0 0 0 0 0 0 0 0 0 0 0 0 0 0 0 0 0 0 0 0 0 0 0 0 0 0 0 0 0 0 0 0 0 0 0 0 0 0 0 0 0 0
0 0 0 0 0 0 0 0 0 0 0 0 0 0 0 0 0 0 0 0 0 0 0 0 0 0 0 0 0 0 0 0 0 0 0 0 0 0 0 0 0 0 0
0 0 0 0 0 0 0 0 0 0 0 0 0 0 0 0 0 0 0 0 0 0 0 0 0 0 0 0 0 0 0 0 0 0 0 0 0 0 0 0 0 0 0
0 0 0 0 0 0 0 0 0 0 0 0 0 0 0 0 0 0 0 0 0 0 0 0 0 0 0 0 0 0 0 0 0 0 0 0 0 0 0 0 0 0 0
0 0 0 0 0 0 0 0 0 0 0 0 0 0 0 0 0 0 0 0 0 0 0 0 0 0 0 0 0 0 0 0 0 0 0 0 0 0 0 0 0 0 0
0 0 0 0 0 0 0 0 0 0 0 0 0 0 0 0 0 0 0 0 0 0 0 0 0 0 0 0 0 0 0 0 0 0 0 0 0 0 0 0 0 0 0
0 0 0 0 0 0 0 0 0 0 0 0 0 0 0 0 0 0 0 0 0 0 0 0 0 0 0 0 0 0 0 0 0 0 0 0 0 0 0 0 0 0 0
0 0 0 0 0 0 0 0 0 0 0 0 0 0 0 0 0 0 0 0 0 0 0 0 0 0 0 0 0 0 0 0 0 0 0 0 0 0 0 0 0 0 0
0 0 0 0 0 0 0 0 0 0 0 0 0 0 0 0 0 0 0 0 0 0 0 0 0 0 0 0 0 0 0 0 0 0 0 0 0 0 0 0 0 0 0
0 0 0 0 0 0 0 0 0 0 0 0 0 0 0 0 0 0 0 0 0 0 0 0 0 0 0 0 0 0 0 0 0 0 0 0 0 0 0 0 0 0 0
0 0 0 0 0 0 0 0 0 0 0 0 0 0 0 0 0 0 0 0 0 0 0 0 0 0 0 0 0 0 0 0 0 0 0 0 0 0 0 0 0 0 0
0 0 0 0 0 0 0 0 0 0 0 0 0 0 0 0 0 0 0 0 0 0 0 0 0 0 0 0 0 0 0 0 0 0 0 0 0 0 0 0 0 0 0
0 0 0 0 0 0 0 0 0 0 0 0 0 0 0 0 0 0 0 0 0 0 0 0 0 0 0 0 0 0 0 0 0 0 0 0 0 0 0 0 0 0 0
0 0 0 0 0 0 0 0 0 0 0 0 0 0 0 0 0 0 0 0 0 0 0 0 0 0 0 0 0 0 0 0 0 0 0 0 0 0 0 0 0 0 0
0 0 0 0 0 0 0 0 0 0 0 0 0 0 0 0 0 0 0 0 0 0 0 0 0 0 0 0 0 0 0 0 0 0 0 0 0 0 0 0 0 0 0
Wind_Speed
3 2 2 2 2 2 2 2 2 2 2 2 2 2 2 2 2 2 2 3 3 3 3 4 4 4 3 3 3 3 4 4 7 7 5 5 6 6 6 5 6 5 6
3 2 2 1 2 2 2 3 2 2 2 2 2 2 3 3 3 3 3 3 4 4 4 5 5 4 4 4 4 4 4 5 6 8 7 5 7 6 6 6 6 6 5
2 2 1 1 2 2 2 2 2 2 2 2 2 3 3 3 3 4 4 4 5 5 5 5 5 5 5 5 5 5 5 5 5 6 7 5 5 5 6 6 6 5 6
2 2 2 2 2 2 2 2 2 2 2 2 3 3 3 4 4 5 5 5 6 6 6 6 6 6 6 6 6 6 5 5 5 6 6 6 5 5 4 5 6 4 5
2 2 2 2 2 1 1 1 1 2 2 2 3 3 3 3 4 5 6 6 6 6 6 6 7 8 10 8 7 5 5 5 5 6 6 6 5 5 5 4 6 5 5
2 2 1 1 1 1 1 1 1 1 2 2 3 3 4 4 9 11 8 5 5 5 5 6 6 8 10 13 14 12 10 8 6 6 6 7 7 6 5 5 5 5 6
1 1 1 1 1 1 1 1 2 2 2 3 3 4 4 7 11 12 12 5 4 4 5 5 5 6 9 6 10 13 12 14 13 8 8 8 7 6 6 7 7 7 7
1 1 1 1 1 1 1 1 2 2 2 3 4 4 4 7 11 12 12 5 3 5 5 6 6 7 8 8 7 7 7 8 9 7 7 8 7 6 7 8 8 7 6
1 1 1 1 1 1 2 2 2 2 3 3 4 4 4 7 11 12 11 3 4 5 6 6 7 7 12 14 8 7 7 7 9 12 12 11 12 11 8 5 5 5 6
1 1 1 1 1 2 2 2 2 2 3 3 4 4 4 6 10 11 11 3 4 5 5 6 10 10 13 13 7 6 7 7 6 6 7 9 8 7 9 5 5 5 5
1 1 1 1 1 2 1 2 2 2 2 3 4 4 4 6 9 11 11 4 4 5 5 4 5 12 13 13 10 5 8 7 5 5 5 5 4 4 4 4 4 5 5
1 1 1 1 1 1 1 1 2 2 2 3 3 4 4 5 7 9 11 10 8 5 5 5 6 12 13 12 9 8 10 8 3 3 4 4 4 4 4 4 5 5 5
1 1 2 2 2 2 1 1 2 2 2 3 3 3 4 4 5 10 11 12 12 6 5 9 11 12 11 8 8 9 7 3 3 4 4 4 4 4 4 3 4 4 4
1 1 1 1 2 2 2 2 2 2 2 3 3 3 4 4 4 4 5 6 8 7 5 7 10 10 8 7 7 5 4 3 3 4 4 4 3 3 3 3 3 4 4
1 1 2 2 2 2 2 2 3 2 3 3 3 3 4 4 6 10 7 5 4 4 5 3 3 3 3 4 3 3 3 3 3 3 3 3 4 4 4 3 3 3 3
1 2 1 2 2 2 2 3 5 6 8 8 8 6 6 8 11 11 11 10 9 9 5 3 3 3 4 4 4 4 4 3 3 3 3 3 3 4 4 3 3 3 3
1 1 1 2 2 2 2 3 4 5 7 8 10 10 10 10 11 11 10 10 9 8 3 3 3 4 4 4 4 4 4 4 4 4 3 3 3 4 4 4 3 3 4
1 2 2 1 2 2 2 3 3 4 4 5 7 10 12 12 11 11 10 7 5 5 3 3 4 4 4 4 4 4 4 4 4 4 3 3 3 3 3 3 3 3 4
1 1 1 1 2 2 2 3 3 3 4 4 4 6 10 11 11 10 9 4 3 4 4 4 4 4 4 4 4 4 4 4 4 4 4 4 3 3 4 4 3 5 5
1 3 3 2 2 2 2 3 3 3 4 4 4 5 5 5 4 5 4 3 3 3 4 4 4 4 4 4 4 4 4 4 4 4 4 4 4 3 4 4 4 4 4
1 2 4 3 2 3 3 3 3 3 4 4 4 6 9 4 4 4 4 4 3 4 4 4 4 4 4 4 4 4 4 4 4 4 4 4 4 4 4 4 4 4 3
1 2 2 2 2 3 3 3 3 4 4 5 4 6 9 5 4 4 4 4 4 4 4 4 4 4 4 4 4 4 4 5 4 4 4 4 4 4 4 4 4 3 3
1 2 2 2 2 4 4 3 3 4 4 4 5 4 4 4 4 4 4 5 5 5 4 4 5 5 4 4 4 4 4 5 5 4 4 4 4 4 4 4 5 4 4
1 2 2 3 3 3 3 3 4 4 4 4 4 4 4 4 5 5 5 5 5 5 5 5 5 6 7 6 4 4 5 5 5 5 5 5 5 4 4 4 4 5 4
1 2 2 2 3 3 3 4 4 4 4 4 4 5 5 5 5 5 5 5 6 6 6 6 5 6 7 8 7 6 8 11 9 6 4 4 5 5 5 5 4 4 4
1 2 2 3 3 3 3 4 4 4 4 5 5 5 5 5 5 5 5 5 6 6 6 6 7 7 8 7 8 10 12 12 11 11 6 4 5 5 5 4 5 4 4
Wind_Direction
181 186 183 203 204 201 213 225 231 244 247 252 262 269 269 276 273 270 272 274 273 277 279 279 279 280 280 276 272 268 261 259 273 285 284 289 288 286 287 284 282 278 279
179 175 189 204 207 210 225 234 234 242 249 254 259 266 266 273 272 267 270 273 266 270 271 272 276 281 282 278 270 269 266 258 265 282 288 290 285 281 279 280 287 291 282
174 174 192 210 222 226 232 237 238 242 255 262 262 265 265 268 268 265 260 262 259 259 260 261 266 269 273 272 269 268 269 271 265 274 283 286 285 282 283 284 283 283 287
179 183 203 220 229 239 238 236 238 240 248 258 264 268 264 269 269 265 261 259 259 258 256 256 259 259 263 268 268 264 267 272 272 273 279 285 286 285 280 285 290 287 287
179 195 217 231 237 242 244 250 252 251 261 266 273 278 276 271 263 260 258 257 256 257 257 258 260 266 269 272 275 268 264 267 272 274 275 284 285 292 288 290 289 294 288
182 206 224 224 240 250 257 262 269 275 277 280 279 279 279 281 287 287 285 264 257 259 263 265 266 271 275 281 284 284 279 272 270 269 274 273 278 280 283 285 288 293 291
179 197 210 207 233 255 266 270 270 275 282 280 281 278 277 283 291 293 293 289 264 261 264 268 275 275 281 273 278 281 280 278 275 272 270 268 272 272 276 279 277 276 276
183 205 221 227 252 263 262 272 282 284 276 276 277 274 278 287 296 298 300 297 273 267 264 261 265 270 270 273 268 270 268 269 271 270 263 266 269 268 263 268 271 280 282
222 246 254 248 252 256 260 268 282 284 282 279 278 275 280 290 298 301 303 286 277 274 271 268 268 265 274 281 277 274 277 278 282 282 282 284 286 288 288 284 278 278 283
274 280 276 262 244 247 254 264 279 278 281 287 291 285 280 285 295 302 307 293 290 286 281 275 279 281 285 286 275 266 273 277 281 287 287 287 283 284 285 274 266 265 276
316 322 315 300 278 262 263 272 275 285 293 291 292 291 282 285 296 302 306 301 288 290 290 288 281 289 291 292 290 270 277 287 278 277 281 282 281 278 276 277 273 264 263
356 347 335 325 307 307 301 300 291 278 284 285 291 296 287 287 297 300 305 305 304 291 291 290 288 294 296 298 296 290 290 293 284 281 282 283 284 285 286 281 280 280 272
17 355 340 333 329 325 307 297 299 287 282 289 290 296 302 300 297 303 306 308 309 304 293 299 302 305 306 306 305 302 300 287 282 281 283 285 288 287 289 292 301 297 296
9 339 329 335 334 332 321 304 293 286 284 288 291 296 302 306 303 302 299 301 303 305 305 304 310 315 315 311 311 311 305 290 287 282 288 293 298 296 294 300 301 305 304
351 333 333 332 331 326 320 309 305 283 282 292 290 291 302 302 305 314 319 313 310 305 314 315 318 323 323 320 313 311 311 309 302 299 295 300 305 304 303 306 299 301 297
347 338 331 329 325 325 325 324 321 324 322 322 320 313 305 309 315 319 322 323 325 327 327 327 323 318 316 318 318 317 314 314 310 302 297 296 298 297 299 302 300 296 292
279 306 305 318 322 320 320 323 323 326 327 330 331 327 323 322 324 325 327 328 332 337 336 328 319 315 315 315 314 314 313 310 307 303 301 300 298 294 292 295 297 294 290
300 301 314 303 305 306 306 307 309 313 320 324 328 330 330 330 330 329 330 334 336 340 329 319 313 312 312 311 311 311 309 312 311 308 306 301 297 294 292 290 290 289 291
314 302 301 298 301 301 303 305 306 306 308 311 317 324 330 331 333 336 339 342 325 320 319 315 312 310 310 307 306 307 307 307 310 308 303 301 298 294 291 288 287 293 299
307 311 321 312 309 310 307 305 307 306 306 307 311 315 321 325 327 331 335 327 318 312 311 310 310 309 307 305 304 303 303 304 306 305 304 303 299 292 289 290 288 288 290
303 302 315 316 304 302 301 300 300 301 301 301 302 309 318 319 316 317 318 319 314 310 307 305 303 302 299 297 296 297 297 296 295 296 298 299 299 298 295 292 289 284 283
290 293 294 292 297 298 299 296 296 296 297 299 302 309 320 325 317 312 312 312 310 306 304 301 298 294 292 291 291 290 289 289 290 289 290 292 292 290 291 292 290 288 283
278 286 295 298 298 299 309 304 300 297 295 297 300 305 311 311 308 307 306 307 306 304 302 300 296 295 292 287 283 277 277 280 280 278 281 285 286 285 285 287 287 286 281
281 285 291 295 297 293 293 295 296 297 296 295 298 301 302 302 302 303 303 302 301 299 298 296 292 292 294 292 286 280 275 278 277 269 264 267 274 276 277 280 282 281 279
307 297 294 292 292 292 292 294 295 297 300 300 299 300 300 299 299 300 300 299 297 295 294 293 291 290 290 289 288 285 285 289 288 281 264 260 265 265 267 271 274 278 274
305 295 290 289 287 287 288 289 291 294 296 298 300 299 298 297 296 296 296 296 297 296 294 292 290 290 289 288 286 288 291 292 291 290 282 265 262 265 265 263 268 269 269